Aérodrome :
LOGIN :

S'inscrire | Disclaimer

   EN    FR    IT 

 










Légende :    VFR   VFR Marginal   IFR   IFR Intensif   IFR Très Intensif
Visi : 
Plafond : 
>= 8 km
>= 3000ft
5 à 8 km
1000 à 3000 ft
1500m à 5 km
500 à 1000 ft
800 à 1500m
200 à 500 ft
< 800m
< 200 ft
Symboles :   Orages  Brouillard  Fortes neiges  Fortes précipitations  Vent > 20 kt
SIGMETs :   Divers  Orages  Givrage  Turbulence  Onde Orograph.  Cendres Volcan.






- Altitude de l'aérodrome : 270 ft
- Code IATA : OXF


EGTK - Oxford (Kidlington)

DERNIER METAR :
  • 280850Z VRB03KT CAVOK 09/06 Q1014

METARs EXPIRÉS :
  • 280820Z VRB03KT CAVOK 07/05 Q1014
  • 280750Z 23002KT CAVOK 06/05 Q1014
  • 280720Z 23003KT CAVOK 04/03 Q1013
  • 280650Z 25003KT CAVOK 02/02 Q1013
  • 280620Z VRB02KT CAVOK 02/01 Q1013

TAF TAF EGTK
Valide du 28 à 09h jusqu'au 28 à 18h UTC


280805Z 2809/2818 24006KT CAVOK
BECMG 2815/2818 BKN020



MET'MAP, la Météo Aéronautique d'un coup d'oeil ! - Copyright ORBIFLY Décembre 2007 - Disclaimer

ORBIFLY MET'MAP TEAM :

Programmation & Développement : Alexandra Zaïnal
Sur une idée originale de : Baudouin d'Aumeries
Assistance à la programmation : Marc-Olivier Méhu
Soutien technique & logistique : Manuel Goepfert

Contact : metmap@orbifly.com




SOURCES & CREDITS :

   NOAA